Regional Weather Roundup
Issued by NWS

Home | Current Version | Previous Version | Graphics & Text | Print | Product List | Glossary On
Versions: 1 2 3 4 5 6 7 8 9 10 11 12 13 14 15 16 17 18 19 20 21 22 23 24 25 26 27 28 29 30 31 32 33 34 35 36 37 38 39 40 41 42 43 44 45 46 47 48 49 50
000
ASUS43 KLSX 251857
RWRMO

WEATHER SUMMARY FOR MISSOURI
NATIONAL WEATHER SERVICE SPRINGFIELD MO
200 PM CDT WED MAY 25 2016

NOTE: "FAIR" INDICATES FEW OR NO CLOUDS BELOW 12,000 FEET WITH NO
       SIGNIFICANT WEATHER AND/OR OBSTRUCTIONS TO VISIBILITY.
       CURRENT SKY AND/OR WEATHER CONDITIONS ARE NOT AVAILABLE FOR
       CHILLICOTHE AND FARMINGTON.

MOZ001>031-035>038-043-044-053-054-252000-
...NORTHERN AND WESTERN MISSOURI...

CITY           SKY/WX    TMP DP  RH WIND       PRES   REMARKS
KANSAS CTY INT SUNNY     77  63  61 SE8       29.90F
LEE`S SUMMIT   SUNNY     78  64  61 SE8       29.92F
ST JOSEPH      SUNNY     77  62  59 SE8       29.89F
CHILLICOTHE      N/A     80  62  54 SE8       29.89F

$$
MOZ066>068-077>081-088>096-101>105-252000-
...SOUTHWEST MISSOURI...

CITY           SKY/WX    TMP DP  RH WIND       PRES   REMARKS
SPRINGFIELD    CLOUDY    78  61  55 S18       29.96R
JOPLIN         SUNNY     83  66  56 S15G24    29.93F
BRANSON        MOSUNNY   72  64  78 SE9G17    30.01S

$$
MOZ032>034-039>042-045>050-055>058-069>072-252000-
...CENTRAL MISSOURI...

CITY           SKY/WX    TMP DP  RH WIND       PRES   REMARKS
COLUMBIA       NOT AVBL
JEFFERSON CITY PTSUNNY   79  62  56 SE7       29.94R
ROLLA          CLOUDY    73  63  70 S9        29.96R
SEDALIA        PTSUNNY   82  63  52 MISG      29.96R
WARRENSBURG    CLOUDY    77  63  61 NE6       29.94F

$$
MOZ051-052-059>065-252000-
...EAST CENTRAL MISSOURI...

CITY           SKY/WX    TMP DP  RH WIND       PRES   REMARKS
ST LOUIS INTL  CLOUDY    79  67  66 S14G20    29.98F

$$
MOZ072>076-082>087-097>100-106>115-252000-
...SOUTH CENTRAL AND SOUTHEAST MISSOURI...

CITY           SKY/WX    TMP DP  RH WIND       PRES   REMARKS
CAPE GIRARDEAU CLOUDY    74  67  78 S7        30.05F
POPLAR BLUFF   MOSUNNY   78  69  73 SW14      30.07R
WEST PLAINS    CLOUDY    66  61  84 CALM      29.97F

$$


USA.gov is the U.S. government's official web portal to all federal, state and local government web resources and services.